Location: �couen
(49.0206°N, 2.3831°E)
Time: 04:30:16
(UTC+00:00)

Cosmos 2098 - Pass Details

Date: 30 May 2022
Orbit: 387 x 1576 km, 82.9° (Epoch: 04 July)

Event Time Altitude Azimuth Distance (km) Brightness Sun altitude
Rises 02:05:52 0° 3° (N) 2,369 9.2 -12.8°
Reaches altitude 10° 02:08:19 10° 22° (NNE) 1,445 8.4 -12.6°
Maximum altitude 02:10:35 19° 71° (ENE) 1,004 6.9 -12.4°
Drops below altitude 10° 02:12:51 10° 121° (ESE) 1,439 7.0 -12.2°
Sets 02:15:16 0° 140° (SE) 2,353 7.9 -12.0°
